Wind_Speed
28 29 28 27 27 28 28 28 28 27 26 25 23 21 20 20 20 19 19 19 19 18 18 17 17 16 15 15 15 15 16 15 14 13 13 13 13 12 11 12 12 11 12 13 14 14 14 14 13 12 13 15 16 17 15 15 15 14 13 12 11 12 13 13 15 17 17 16 16 16 16 16 16 16 16 16 15 14 13 13 14 17 19 20 19
27 28 28 27 27 27 27 27 27 28 27 26 25 23 21 20 20 19 19 20 20 19 18 18 18 17 16 15 16 16 16 16 15 15 14 14 14 13 13 12 12 12 12 13 13 13 13 14 14 13 12 14 16 16 15 14 15 15 12 9 8 9 10 11 13 15 16 16 16 17 17 18 18 18 18 17 16 15 15 16 17 19 20 21 19
26 27 29 29 28 27 26 26 26 26 27 27 26 24 23 21 20 21 21 21 21 20 19 19 19 18 17 17 16 16 16 16 15 16 15 15 15 14 14 14 13 13 13 13 12 12 13 13 14 13 13 15 15 15 14 14 14 15 12 9 8 9 9 11 12 14 15 15 15 15 15 15 16 17 16 16 15 16 17 18 18 19 19 18 16
29 28 28 29 27 26 26 25 24 24 24 25 26 25 24 23 21 22 22 21 22 21 20 20 20 20 20 18 17 17 18 17 16 16 16 15 15 15 15 15 15 14 13 13 12 11 12 13 13 14 14 15 15 14 14 13 13 14 14 11 11 11 11 12 13 14 16 16 15 14 13 13 13 14 15 16 16 16 17 17 17 16 14 11 12
31 30 29 29 27 26 26 26 25 24 24 23 24 24 24 24 22 22 22 22 22 22 21 21 21 21 21 20 19 18 19 19 18 17 17 16 16 16 17 17 16 16 15 14 12 11 12 13 13 14 14 15 15 14 14 14 13 13 15 14 14 13 12 13 13 15 16 17 17 16 14 14 14 13 13 14 16 16 16 16 14 12 10 9 10
34 33 31 30 28 26 26 28 27 25 25 24 24 24 24 24 23 22 23 23 23 23 23 23 23 23 22 21 20 19 19 20 19 19 18 16 16 16 16 17 18 17 16 16 15 14 14 14 14 14 15 16 16 15 15 15 15 14 15 16 16 15 15 14 15 16 17 18 19 18 16 15 15 13 11 12 14 15 15 15 12 9 9 10 11
34 34 33 31 29 28 28 29 28 26 25 25 25 25 24 25 25 24 23 23 24 24 24 25 26 26 24 22 21 20 19 19 20 20 19 18 17 17 16 16 17 17 17 16 16 16 16 16 15 15 16 16 17 16 16 16 16 16 16 16 17 17 18 17 17 17 19 20 21 21 19 18 16 14 12 13 15 15 15 15 14 11 10 12 13
32 32 32 31 30 29 29 30 30 28 27 26 25 25 24 25 26 26 25 24 24 24 25 26 27 28 28 26 23 21 20 20 20 20 20 20 19 19 18 17 17 17 17 17 17 17 16 16 16 16 16 16 16 16 16 16 16 17 17 17 17 18 18 18 18 18 19 21 22 23 22 20 17 16 16 17 17 17 16 16 18 16 14 15 15
28 27 28 28 28 28 29 30 31 30 30 29 27 26 26 25 26 27 27 27 26 26 25 26 27 28 29 28 25 23 21 21 20 20 21 21 21 21 21 20 19 18 18 18 18 18 18 18 18 17 17 17 17 17 17 17 17 17 16 15 15 16 16 17 18 18 19 21 22 22 22 21 19 19 19 20 20 20 20 19 21 20 19 20 19
22 23 24 25 25 25 26 28 30 32 32 32 30 29 28 27 27 28 29 29 29 28 27 27 28 29 29 28 27 25 24 22 21 20 20 20 21 22 23 23 22 22 21 21 21 21 20 20 20 19 19 19 19 19 19 17 16 15 14 13 13 15 16 17 18 19 20 21 22 21 22 23 22 21 22 21 21 22 22 22 23 23 23 24 24
16 17 18 19 21 22 23 24 26 29 30 31 31 30 29 28 28 28 29 30 30 30 29 28 29 30 31 30 28 27 25 23 21 20 19 18 18 20 21 22 23 24 24 24 23 22 22 21 21 21 21 21 20 20 19 18 16 15 14 14 15 17 19 21 21 21 22 23 24 23 24 25 24 23 23 23 23 23 24 25 26 26 26 27 28
14 14 14 15 16 19 21 21 22 23 24 25 27 27 28 29 29 29 30 30 30 30 30 31 30 30 31 33 32 30 27 24 22 21 20 19 19 19 19 20 21 23 24 25 26 25 24 23 23 23 22 22 22 21 20 20 19 18 18 18 20 21 22 23 24 24 24 25 26 26 26 26 26 25 25 26 26 27 28 28 28 29 30 30 31
14 14 14 13 14 15 16 16 17 18 18 19 20 22 25 27 29 31 32 31 31 31 30 31 31 31 32 33 34 33 31 28 26 24 22 21 21 21 21 21 21 20 21 22 24 25 25 25 25 25 24 24 24 23 23 22 21 21 21 22 23 23 24 24 25 26 27 27 28 28 27 27 28 28 27 29 30 31 31 30 29 30 32 32 32
12 14 13 13 13 13 12 12 13 14 15 15 16 18 21 25 28 31 32 32 32 31 30 30 31 31 32 34 35 34 33 31 29 28 26 24 21 22 24 24 23 22 21 20 20 20 21 22 23 23 23 24 24 24 24 24 24 24 25 25 25 25 25 26 27 28 29 30 31 30 29 29 30 31 30 31 32 32 31 29 28 29 30 30 30
6 9 9 10 11 11 11 11 11 11 13 15 16 18 21 23 26 28 31 33 33 32 30 30 32 32 31 33 35 35 34 32 31 29 29 27 25 24 25 26 26 26 25 24 22 22 21 21 23 23 22 22 22 23 24 24 25 26 27 28 28 28 28 28 28 29 29 30 32 32 32 32 32 33 33 32 32 32 30 28 28 28 28 28 29
7 5 5 6 7 7 7 8 9 10 12 14 16 18 20 22 23 25 27 29 31 31 30 30 33 33 31 30 31 33 32 32 31 30 29 29 29 28 28 28 28 28 28 28 27 27 26 26 26 26 25 24 23 22 22 23 24 25 26 27 28 29 30 30 29 29 30 31 32 33 34 34 34 34 34 33 33 32 30 30 28 27 28 30 31
13 10 6 2 1 3 4 4 6 8 11 13 14 15 16 17 18 21 22 23 25 26 28 29 31 33 33 31 30 29 28 29 29 29 29 29 29 29 29 29 29 29 29 29 30 31 31 31 31 30 30 29 26 24 23 23 24 26 27 28 29 30 31 30 30 31 32 33 34 35 35 35 35 35 35 34 34 32 32 32 30 28 29 32 33
14 13 12 9 5 2 3 5 5 6 9 11 11 12 14 15 15 16 17 19 20 22 25 27 28 30 33 34 33 31 29 28 28 28 29 29 28 28 27 27 28 28 28 29 30 31 32 32 33 34 34 32 30 29 27 26 27 28 29 30 31 33 34 33 33 34 35 36 37 37 38 38 37 37 36 35 34 33 33 34 32 30 31 33 34
12 12 12 11 9 7 4 2 1 2 4 6 6 7 12 14 14 14 14 14 15 18 21 23 25 27 29 32 34 34 33 32 31 30 30 29 29 28 28 29 30 31 32 32 33 33 33 33 33 34 34 33 33 32 32 31 32 32 32 32 33 35 35 34 36 37 38 39 40 40 40 40 38 38 37 35 34 34 35 35 34 33 34 35 34
9 9 10 10 9 7 7 6 5 4 4 4 5 4 7 10 11 12 13 12 13 14 16 18 21 23 25 28 31 33 35 36 36 35 35 34 33 33 33 34 36 37 38 38 38 38 39 39 39 38 37 36 36 35 35 36 36 36 35 35 36 37 36 36 37 38 38 39 39 39 39 38 37 36 36 35 34 34 35 35 34 33 34 35 34
5 5 5 7 7 6 5 5 5 5 6 7 8 8 6 6 8 10 11 12 13 14 14 15 17 19 21 24 27 30 32 35 36 36 36 36 36 36 37 38 39 40 40 40 39 40 40 41 42 42 39 37 37 38 38 38 39 39 39 38 38 37 37 38 38 37 36 36 35 35 36 35 35 35 35 35 34 34 34 34 34 32 32 33 33
4 4 2 2 5 5 3 4 5 5 5 6 7 8 8 7 6 7 9 10 12 14 14 15 15 16 17 19 22 25 27 29 30 31 31 32 33 34 37 38 38 37 37 38 38 37 37 38 38 37 35 34 33 35 38 39 39 40 41 40 38 37 37 38 36 34 32 32 32 32 33 34 34 33 33 33 31 31 31 32 33 33 34 34 34
6 6 7 7 7 8 6 5 5 5 5 6 6 6 6 6 5 6 7 8 9 10 11 13 15 15 16 17 19 21 22 23 24 24 25 26 29 31 34 35 36 35 35 35 35 34 35 35 36 35 34 33 32 32 34 37 38 38 38 37 36 34 34 34 33 31 30 30 30 31 32 32 32 32 31 30 29 28 29 30 30 31 33 34 35
7 8 9 9 10 10 9 8 6 4 4 6 5 4 4 4 5 6 7 9 8 6 6 9 11 13 14 16 18 19 20 21 21 21 22 23 25 28 31 32 32 33 33 33 33 33 34 35 35 35 34 34 34 33 33 34 35 36 35 33 31 30 30 31 30 30 30 30 31 31 32 32 32 33 32 32 31 31 31 31 31 31 32 33 33
9 9 9 9 10 10 9 7 5 2 2 3 3 3 3 4 4 5 6 7 7 5 5 6 8 8 10 12 15 17 18 18 18 18 19 21 23 25 28 29 30 31 32 33 33 34 35 35 34 33 32 32 33 34 33 33 34 34 33 31 29 28 28 29 30 30 32 33 33 33 34 34 35 35 36 36 36 36 36 35 34 34 34 34 34
12 11 10 9 9 9 9 7 4 2 2 1 1 1 2 3 3 3 3 3 4 5 6 7 9 9 9 8 9 12 14 15 14 13 14 17 18 20 23 25 26 28 30 31 32 32 32 32 30 29 29 28 29 31 32 33 33 34 33 31 29 29 29 30 31 33 34 34 35 35 36 36 36 37 38 39 39 39 37 37 37 36 35 36 37
13 12 11 9 8 8 9 9 7 6 5 4 4 3 2 2 4 3 3 3 4 6 7 9 11 13 14 13 11 11 13 14 14 12 9 11 14 16 17 18 20 23 25 26 27 28 28 29 29 28 27 26 27 28 31 32 34 34 33 31 31 31 31 32 33 35 36 37 38 39 40 40 40 40 40 40 41 39 38 38 39 38 37 38 40
13 13 12 11 10 9 9 9 9 9 9 8 7 6 5 5 6 5 4 6 8 9 11 12 14 16 16 15 13 12 14 15 13 11 10 12 14 16 16 17 17 19 21 22 23 24 25 27 28 27 26 26 27 27 29 31 33 34 34 34 34 35 35 36 37 38 39 40 41 41 40 39 38 38 38 38 39 38 37 38 39 39 40 41 43
14 14 13 13 12 11 11 11 11 12 11 11 10 9 9 9 10 10 9 10 12 14 15 16 17 17 15 13 11 12 12 12 12 14 15 15 14 15 16 17 17 18 19 21 22 23 24 26 27 27 27 27 27 28 28 28 29 31 32 33 35 36 36 37 37 38 37 37 37 38 36 34 34 34 34 34 35 34 33 34 36 38 40 42 42
13 13 13 14 14 14 14 13 13 13 14 14 14 13 13 13 13 13 14 14 15 15 15 15 14 14 14 13 13 14 13 11 11 13 14 14 13 13 15 16 17 18 18 19 21 22 23 24 25 26 27 28 27 28 27 25 24 25 26 27 28 29 30 31 31 32 32 32 32 32 32 32 32 32 32 33 34 32 31 32 33 35 37 38 39
13 12 13 14 15 16 16 16 15 15 15 16 17 17 17 17 16 15 14 14 14 13 14 14 13 14 15 17 17 15 13 12 12 12 11 12 13 14 15 16 17 17 17 18 19 21 22 22 23 24 26 27 29 29 27 24 23 23 24 25 25 26 27 28 29 29 30 30 29 29 30 31 32 32 33 35 35 34 33 33 34 34 34 34 36
13 13 14 15 16 16 17 18 18 17 17 16 16 17 18 19 19 18 15 14 13 13 14 14 14 15 16 17 17 16 15 14 14 13 12 14 15 16 16 16 16 16 17 17 19 19 20 21 22 21 22 24 28 30 31 30 29 28 28 29 29 29 28 28 27 27 28 28 28 29 31 32 34 34 35 35 36 35 35 35 36 35 35 35 36
13 14 15 16 15 15 16 18 19 19 18 17 16 16 17 19 21 21 19 17 14 12 11 13 14 14 15 15 16 18 18 17 15 13 14 15 17 16 15 14 14 15 16 17 18 18 17 17 17 17 17 19 22 25 28 30 30 30 30 30 30 29 27 25 24 25 27 28 29 31 32 33 33 34 34 34 34 34 34 34 35 36 36 37 37
13 14 14 14 13 14 15 17 18 19 19 19 18 17 17 18 19 21 21 20 17 13 12 13 16 16 16 16 16 16 16 16 14 14 14 15 16 15 13 12 13 15 16 17 17 15 14 14 14 13 13 14 16 18 21 23 24 24 25 25 26 25 24 23 23 25 26 27 29 30 31 31 30 31 31 32 31 30 30 31 32 34 36 37 37
15 14 13 12 12 13 14 16 17 18 19 18 17 17 18 19 20 20 19 18 18 16 14 16 19 20 18 14 12 12 13 14 13 14 15 16 16 14 13 13 14 16 17 17 17 15 14 14 14 12 12 12 13 14 16 18 18 18 19 20 20 21 21 21 22 24 26 27 27 27 26 26 25 25 27 29 29 29 29 28 28 29 31 34 36
16 16 15 14 14 14 15 16 16 17 17 17 17 17 17 17 19 19 19 18 17 17 16 17 19 20 16 11 9 11 13 13 12 13 14 15 15 14 14 16 18 19 18 18 19 19 18 17 16 15 15 14 14 13 14 16 17 17 17 18 19 21 21 22 23 24 24 25 25 24 23 23 22 23 24 26 28 28 28 27 27 27 28 30 32
17 17 17 17 16 16 17 17 17 17 17 17 17 17 17 17 17 18 19 19 19 19 18 18 18 19 17 14 13 13 14 13 13 13 13 14 15 16 17 20 22 22 22 22 23 24 23 21 18 16 15 15 16 16 16 16 17 18 18 19 20 22 22 22 23 24 25 24 24 23 22 22 23 24 24 26 28 28 28 29 29 29 28 28 29
18 18 18 19 19 19 19 19 19 19 20 20 19 18 18 18 17 17 18 19 20 19 19 19 19 20 20 18 17 17 17 16 17 18 18 19 20 21 22 24 25 24 24 25 26 28 28 27 24 21 19 18 18 19 19 19 20 20 21 21 21 21 20 20 20 21 22 22 24 24 25 26 27 27 26 28 29 29 29 29 30 30 30 30 30
21 20 19 19 20 20 20 20 21 21 20 20 20 19 18 18 18 19 18 18 19 20 20 19 20 20 21 20 20 19 18 18 19 20 21 22 23 23 24 24 25 25 25 26 27 27 29 29 29 27 26 25 24 24 25 25 25 25 25 26 25 25 26 27 27 25 24 25 27 30 31 32 31 30 30 31 32 31 31 31 31 31 31 31 31
23 23 21 19 19 20 21 21 21 21 21 20 20 21 19 18 19 20 20 20 21 21 22 22 21 20 19 20 20 20 19 20 21 22 22 23 23 23 23 24 25 26 27 28 27 27 28 29 30 29 29 28 28 28 29 30 30 30 30 31 31 31 31 32 32 31 32 33 34 35 35 33 31 30 31 32 32 32 32 32 31 31 31 31 31
23 23 22 19 19 19 20 20 19 19 19 20 21 22 22 21 21 22 22 22 22 22 23 24 24 23 21 21 21 22 23 24 25 26 26 26 26 25 25 26 26 27 28 30 31 30 29 29 29 29 29 30 30 30 31 32 32 33 33 34 35 35 35 35 35 35 37 38 38 38 38 37 35 34 34 34 33 32 31 31 32 32 32 33 34
21 21 20 19 19 19 18 18 18 19 19 21 22 23 22 23 23 23 23 23 23 23 23 23 24 25 25 25 24 25 26 26 27 28 28 28 27 26 26 27 27 28 30 33 33 33 32 31 30 29 29 30 30 31 31 31 32 33 34 34 35 36 36 37 38 39 40 41 41 41 42 42 42 42 42 42 41 39 37 36 36 36 37 38 38
19 19 19 19 19 18 17 18 19 20 21 22 23 23 23 22 22 22 23 24 24 23 23 22 22 23 25 26 27 27 28 28 29 29 29 29 28 28 28 29 30 30 31 33 33 34 34 34 32 30 30 30 30 30 31 31 32 32 33 34 35 36 36 36 37 39 40 41 42 41 42 42 43 44 45 46 47 47 46 45 44 43 44 44 43
20 21 21 21 21 22 22 22 21 20 20 20 21 22 22 23 23 23 23 25 25 24 23 22 22 23 25 27 28 29 29 29 29 29 28 28 28 28 29 31 31 31 32 33 34 35 36 36 35 33 31 30 29 29 29 30 31 32 33 33 34 34 35 35 36 37 38 38 38 38 38 38 38 39 40 41 43 44 46 46 47 47 47 47 47
24 24 24 24 24 24 23 21 18 17 18 19 19 19 20 22 23 24 25 26 26 25 24 23 22 22 24 25 27 29 29 29 29 28 27 27 28 29 29 30 31 32 33 35 35 36 37 37 37 36 35 33 31 29 28 28 30 31 32 33 34 34 35 35 35 35 35 36 36 36 36 35 35 35 35 36 36 37 38 39 40 42 43 44 45
22 20 19 17 16 16 16 15 15 17 19 19 19 19 20 20 22 23 25 26 25 24 24 24 24 23 23 24 26 28 28 27 27 26 26 27 28 28 29 30 31 33 35 36 37 37 37 36 37 37 37 36 33 31 28 27 27 28 30 32 33 33 34 34 34 34 34 33 33 33 34 34 34 34 34 34 34 34 34 35 35 37 38 39 39
15 12 10 11 11 12 13 14 16 18 19 20 20 21 22 22 22 22 23 24 24 23 22 22 22 23 23 23 25 26 25 25 25 25 26 28 29 29 29 30 32 34 36 37 38 38 37 36 35 37 37 36 34 33 30 27 25 25 26 27 29 30 31 32 33 33 32 31 31 32 33 34 34 34 34 34 35 35 35 35 35 35 36 36 37
11 9 9 10 11 12 14 15 16 16 18 18 19 19 20 22 23 23 23 22 22 22 22 22 22 22 22 22 23 23 23 24 24 25 26 28 28 29 29 31 33 34 36 37 38 38 37 36 35 35 36 36 34 32 30 28 25 23 23 23 25 27 29 30 31 31 31 31 31 32 33 34 34 35 35 35 35 36 36 35 35 35 36 36 35
10 10 11 11 11 12 14 16 17 18 19 20 19 19 19 20 21 22 22 21 19 19 19 20 20 21 22 23 23 24 25 26 26 26 26 27 28 28 30 33 34 36 36 35 35 36 36 36 35 34 35 35 33 31 29 28 26 24 22 22 24 25 27 28 29 30 31 31 32 32 33 34 34 35 35 36 35 35 35 35 35 35 35 34 34
11 11 10 10 11 12 14 16 18 18 19 20 21 22 23 22 22 22 23 23 22 20 20 20 21 22 23 24 25 25 26 26 26 26 26 27 28 29 32 34 35 35 35 34 33 34 35 36 35 34 33 32 31 30 29 28 27 25 23 23 23 24 25 26 27 29 30 31 33 33 34 34 34 34 35 34 34 33 33 32 32 31 31 30 30
11 10 9 10 10 12 14 15 15 15 15 15 17 20 21 22 21 21 22 23 23 23 23 23 24 24 24 24 24 24 25 25 26 27 27 28 29 31 32 33 34 34 34 33 32 33 35 35 35 33 32 30 29 29 29 28 27 26 24 23 23 24 24 25 26 28 29 31 32 33 33 33 33 32 32 32 31 30 29 28 27 27 26 25 24
Wind_Direction
214 213 213 213 212 211 212 215 219 220 221 223 226 226 222 219 219 218 219 220 219 220 224 225 226 230 231 232 232 231 229 226 223 224 228 230 231 232 233 233 234 234 235 236 237 237 238 240 241 239 237 239 242 245 251 254 254 259 268 272 273 279 283 282 276 267 256 256 264 269 271 272 274 278 280 280 281 286 291 294 299 303 308 311 312
214 212 213 214 214 213 213 214 218 221 222 224 226 229 229 227 224 223 221 222 224 225 227 227 228 231 235 235 234 233 233 231 226 225 229 231 231 232 233 234 234 232 233 236 242 245 246 245 243 238 238 245 247 245 248 252 256 261 264 268 279 290 293 293 292 285 273 265 267 271 274 278 280 280 282 284 284 284 286 289 294 299 303 305 307
213 212 211 213 214 215 215 215 218 221 223 224 225 226 229 231 231 230 227 224 225 229 230 230 230 233 238 240 238 237 237 235 232 231 233 234 236 235 235 238 240 238 236 239 245 251 252 251 249 246 246 251 252 249 249 252 255 258 255 255 272 285 290 293 296 295 290 283 278 277 279 281 282 282 283 286 288 287 288 290 292 294 298 303 309
214 214 212 212 214 215 217 217 217 220 224 226 227 226 226 229 230 232 232 229 228 229 230 232 233 235 239 242 241 242 241 240 239 237 236 237 239 240 241 243 246 247 247 246 247 253 256 257 257 253 250 253 256 255 254 255 257 255 251 256 271 278 279 283 289 296 298 296 292 292 294 291 288 287 287 288 289 288 288 288 289 291 297 308 316
215 215 213 211 211 213 218 221 218 217 220 224 228 230 229 227 227 230 233 233 232 231 231 234 236 237 240 243 243 242 243 244 245 243 241 239 239 241 244 246 248 250 249 246 244 250 258 261 261 257 254 256 261 263 261 258 255 253 255 260 267 274 276 276 281 290 295 297 297 297 298 298 296 292 292 293 291 289 289 289 291 299 308 316 317
213 213 213 211 210 212 216 221 221 218 217 219 222 226 229 229 228 230 233 235 235 234 233 236 240 241 242 244 245 243 242 243 246 247 247 245 243 244 245 247 250 251 251 250 250 252 257 260 260 257 257 260 263 265 266 262 256 254 258 259 261 268 274 275 278 284 286 289 292 294 297 302 302 300 302 303 301 303 305 302 299 302 309 313 312
211 211 211 211 212 214 214 218 223 224 223 222 221 221 223 226 228 231 234 236 238 237 235 237 241 245 247 247 247 245 244 244 245 247 248 248 250 251 250 250 251 251 254 256 258 260 261 263 263 260 259 261 263 265 267 267 264 262 263 263 262 262 266 270 273 276 280 282 285 290 296 301 303 304 311 312 310 314 318 313 307 307 308 307 305
211 211 211 211 212 215 215 218 223 226 227 227 226 224 222 223 226 232 235 236 237 238 238 240 242 245 249 251 251 250 250 249 248 247 247 248 251 254 255 255 254 255 257 258 261 265 266 268 268 266 266 267 269 271 272 273 272 270 269 270 269 264 262 265 267 269 274 278 281 285 289 294 299 304 311 312 312 316 318 311 307 311 311 307 306
209 212 213 214 217 219 220 221 224 226 228 230 229 226 224 223 224 230 235 237 237 238 239 242 245 246 249 251 252 254 255 255 254 252 251 252 253 254 256 256 256 257 258 259 261 263 266 268 269 269 270 272 273 275 275 275 275 275 274 273 273 272 271 271 271 272 275 278 282 284 287 292 298 303 306 309 311 313 314 309 307 310 309 306 309
207 212 214 215 218 220 222 224 226 227 229 231 230 227 225 225 223 226 233 237 239 239 239 240 243 246 249 250 251 252 255 258 260 259 258 258 259 258 258 257 256 256 257 259 260 261 263 266 268 270 271 271 271 271 271 272 271 272 274 275 277 278 278 279 280 281 282 284 288 292 293 295 299 301 303 306 307 308 310 309 308 308 307 304 307
199 205 212 216 216 218 222 226 229 231 232 233 234 232 229 228 227 226 230 235 238 240 241 241 242 244 246 248 249 250 251 255 258 260 262 263 264 264 263 262 260 258 257 257 258 260 262 264 267 269 269 270 270 269 269 269 267 264 264 269 275 277 278 279 281 284 285 287 290 293 294 295 297 299 301 303 305 306 308 308 306 305 304 302 303
192 196 206 215 219 221 223 225 227 230 232 233 234 235 234 234 234 233 234 236 238 239 242 243 243 243 243 244 246 248 250 252 255 257 260 263 265 267 268 268 267 264 261 259 259 260 261 263 266 267 269 271 273 273 273 272 270 268 266 269 273 276 277 276 276 279 282 285 288 290 292 294 295 299 302 304 306 307 306 304 302 302 302 301 301
178 179 189 200 211 216 217 218 219 223 229 230 230 231 232 236 238 239 240 240 238 237 241 243 243 243 242 242 243 246 248 251 254 255 258 261 264 265 266 268 270 271 270 267 264 263 264 266 267 268 270 272 273 274 274 273 272 271 271 272 272 273 274 274 274 276 277 280 283 286 289 291 292 296 301 304 306 306 304 302 300 300 302 302 301
165 161 167 178 186 189 192 200 209 217 224 228 227 227 229 233 236 238 240 240 238 240 243 241 237 238 240 241 243 245 246 250 254 256 258 260 262 264 266 267 269 272 274 274 272 269 269 270 271 272 273 273 273 273 273 273 273 271 270 270 269 268 270 271 273 275 275 277 280 283 286 287 288 292 297 301 303 304 304 302 300 300 300 298 296
166 171 180 183 180 175 180 192 202 213 222 227 229 229 228 229 232 234 236 236 238 243 245 239 232 232 235 238 241 243 245 248 252 254 256 257 258 261 263 264 267 270 272 274 274 274 273 273 273 275 276 276 275 274 273 272 271 271 270 270 269 268 268 268 269 271 273 276 278 280 282 283 285 288 293 297 298 300 301 300 297 297 296 292 291
99 132 177 197 196 191 196 204 207 219 232 233 231 230 229 230 231 232 235 236 238 240 239 236 231 229 231 235 237 240 242 245 248 248 248 249 250 252 255 258 260 264 267 269 270 272 273 273 274 274 275 276 277 277 277 276 273 271 270 270 271 270 269 268 268 269 271 273 275 277 279 282 284 286 289 292 294 297 298 295 293 292 291 290 289
81 79 79 88 221 242 260 251 226 229 242 242 235 232 234 238 239 238 239 240 241 240 238 236 233 231 232 234 234 235 236 239 242 244 244 244 244 245 247 249 252 256 260 263 264 266 268 269 270 271 272 273 274 275 276 275 274 274 273 273 274 273 274 274 274 274 275 275 277 279 281 283 284 286 289 291 292 294 293 290 289 289 287 288 287
80 78 76 71 62 33 322 299 273 254 256 256 250 243 242 246 251 251 249 246 244 244 242 241 239 238 237 236 236 237 238 236 236 238 239 240 240 241 243 246 250 253 257 260 262 264 265 265 265 266 266 268 269 271 272 271 271 272 273 275 276 276 278 280 280 280 281 282 282 283 284 286 287 289 290 291 291 291 287 286 287 285 282 283 284
85 87 85 83 86 92 90 64 347 291 278 277 276 258 247 249 257 262 261 258 254 251 248 246 244 244 242 241 239 240 243 243 241 240 240 240 240 241 245 249 254 257 260 263 264 265 266 266 265 264 264 265 265 267 268 269 269 270 272 273 274 277 280 283 283 283 284 284 285 286 287 288 289 289 289 289 288 286 284 283 283 281 278 278 280
85 93 89 83 84 96 104 102 94 70 37 13 2 328 270 256 261 265 264 264 264 262 259 255 251 248 247 246 244 243 244 246 246 246 248 249 250 251 252 255 258 262 265 267 267 267 267 267 267 267 267 267 266 265 265 266 268 270 271 270 272 277 282 284 283 283 284 284 284 285 286 286 287 286 286 284 283 282 282 282 281 279 277 276 276
57 81 97 87 73 73 88 88 80 69 55 42 30 18 350 300 279 276 274 271 268 267 268 266 263 258 254 251 250 249 249 249 249 251 253 256 257 257 258 260 262 265 267 269 269 268 268 268 268 268 269 270 267 264 263 263 264 267 269 270 273 278 282 282 282 282 281 281 281 281 281 282 281 281 280 280 280 281 282 282 281 278 276 274 274
355 349 347 26 30 25 34 45 43 43 38 28 27 25 14 351 322 308 303 295 285 277 274 272 270 267 263 259 256 255 255 255 256 257 258 259 259 258 257 259 261 263 265 266 267 268 269 270 271 270 271 273 270 266 263 261 260 261 264 268 272 276 279 279 279 277 275 275 276 276 277 277 277 277 279 280 282 284 285 286 284 281 277 274 272
310 316 316 319 332 341 345 358 11 16 6 356 1 17 19 12 4 354 345 336 316 293 281 276 273 269 266 262 259 257 257 257 259 261 262 262 260 258 256 256 257 259 260 262 264 268 270 272 273 272 273 276 275 271 266 260 257 257 259 263 268 272 273 272 270 269 269 270 271 271 272 274 275 277 280 283 287 289 290 289 287 284 281 277 275
295 297 300 304 314 322 328 341 357 3 340 331 350 24 33 27 25 21 11 2 352 332 300 288 284 276 267 261 259 259 259 257 256 257 259 261 261 260 259 258 258 259 260 262 264 269 272 274 275 274 274 274 273 272 267 260 256 255 255 258 263 266 265 263 263 265 267 268 268 269 271 274 277 280 283 286 288 289 289 288 286 285 284 282 280
292 292 295 299 304 307 311 325 347 4 339 338 7 34 30 18 15 15 9 1 357 352 332 318 312 295 275 262 256 256 259 261 260 260 259 260 262 263 262 262 262 262 263 263 265 268 271 274 275 274 273 271 268 266 262 257 256 256 255 255 258 260 261 262 264 266 267 268 269 270 272 275 279 282 284 285 285 285 285 286 286 285 285 284 282
291 292 293 295 296 296 296 298 293 261 220 165 77 1 349 344 337 346 356 351 348 347 338 334 330 319 308 292 264 250 252 255 256 259 264 267 269 269 268 266 264 262 262 263 264 266 269 272 274 273 271 270 267 263 258 254 254 255 255 256 258 260 262 265 267 267 268 270 271 272 274 277 280 282 283 282 282 283 284 286 286 285 284 284 284
290 291 293 294 291 286 284 283 276 263 242 214 205 221 262 300 302 304 305 302 311 320 318 316 318 316 315 313 299 281 274 265 249 241 258 281 281 276 276 278 274 269 267 266 266 266 268 269 270 269 268 269 269 265 260 256 254 255 256 256 258 259 262 265 267 268 270 272 274 277 278 279 279 280 281 281 282 283 284 284 284 283 282 284 285
287 288 291 294 293 286 281 278 275 270 260 244 234 237 246 258 262 264 280 297 303 305 303 302 304 304 304 306 304 300 297 289 271 259 276 297 293 282 282 286 283 277 274 272 271 271 270 270 271 272 272 272 271 269 265 261 259 259 258 258 258 260 263 266 268 270 273 275 277 279 279 277 276 276 279 280 281 282 283 283 282 281 282 283 284
290 291 290 291 293 291 285 279 276 274 270 260 251 249 253 262 263 254 255 273 288 294 294 294 294 293 291 293 300 302 301 300 291 283 288 296 296 288 284 283 282 282 281 280 279 278 278 279 280 282 282 279 274 272 270 267 265 265 265 265 265 267 269 270 272 273 275 277 278 278 277 276 275 276 277 279 280 282 284 284 282 282 283 283 282
298 297 295 292 291 292 290 286 281 278 275 270 264 256 250 253 260 261 259 263 269 274 277 280 283 283 281 284 292 296 296 298 295 288 287 292 291 285 282 281 282 284 285 285 284 283 283 284 284 285 285 283 277 271 268 267 266 267 267 268 268 269 271 272 272 273 274 275 276 276 275 273 272 273 275 278 281 284 285 284 283 283 283 283 283
301 301 299 295 293 293 295 294 292 287 282 278 276 272 264 257 256 258 261 263 264 265 266 268 268 270 275 281 287 288 288 293 295 290 288 290 288 283 281 281 283 285 286 286 286 286 287 288 286 286 285 283 278 274 270 269 269 268 267 267 268 270 272 271 271 272 273 272 272 273 273 273 273 275 278 281 284 286 285 285 284 283 282 283 284
292 296 298 297 298 302 303 303 302 300 296 292 285 280 278 275 271 267 262 264 272 280 279 272 268 269 274 278 282 286 289 293 294 291 288 289 288 286 284 285 287 291 292 291 291 292 294 295 294 294 292 287 282 278 274 272 271 271 271 272 273 273 272 272 273 274 275 273 273 273 274 277 280 282 283 284 286 286 285 284 284 283 282 283 284
285 290 296 300 305 309 310 309 309 308 309 309 302 291 284 283 284 283 278 274 275 283 287 280 273 270 272 274 280 287 291 293 292 289 286 285 285 285 285 287 291 295 297 297 297 300 301 301 301 303 302 297 291 285 281 278 276 276 276 276 275 274 273 274 275 274 273 275 276 276 278 281 283 283 284 284 286 287 286 284 283 282 281 280 280
286 286 290 296 299 300 300 303 307 309 311 312 311 303 292 285 284 286 289 289 287 286 290 291 287 285 286 288 290 292 292 290 287 282 278 278 280 281 280 281 288 295 298 298 298 299 302 302 303 308 310 306 300 294 288 283 280 278 277 276 276 276 276 275 274 273 275 279 279 279 281 284 284 285 285 285 286 288 289 289 288 285 282 280 279
287 285 284 287 289 289 290 294 298 302 306 310 313 311 303 293 286 282 285 293 295 293 293 296 299 301 302 301 298 293 288 283 279 274 272 274 277 276 273 275 286 296 299 297 296 298 300 300 299 301 302 300 299 298 294 289 285 282 279 278 278 277 274 272 272 274 279 283 283 284 286 288 288 288 288 286 286 289 294 296 295 290 285 282 280
288 284 282 283 284 284 287 291 293 298 303 308 314 315 312 305 297 287 281 282 287 291 292 295 299 302 301 296 295 298 298 294 288 281 276 275 274 272 273 279 289 296 297 295 294 295 296 296 297 297 295 291 289 289 290 288 287 286 284 283 283 282 278 273 271 274 279 283 285 287 289 290 291 293 291 288 288 289 291 292 292 291 289 286 284
295 289 283 281 281 282 284 286 288 293 298 302 308 312 311 309 304 295 286 280 279 283 289 294 298 299 294 289 293 300 304 303 298 290 281 275 272 273 278 284 292 298 298 295 293 292 290 288 286 285 285 283 281 280 279 279 280 281 280 279 280 281 280 276 272 271 273 277 279 282 285 287 289 290 290 288 287 287 286 285 286 288 287 286 284
303 298 288 281 279 280 282 283 284 287 292 297 303 308 309 308 306 302 294 286 280 280 283 288 292 292 289 290 295 296 293 290 290 288 284 279 278 280 283 286 291 295 297 295 294 292 291 287 281 275 271 268 268 271 273 273 273 272 270 267 265 265 270 277 280 277 273 274 276 278 282 285 285 286 286 285 284 284 284 284 284 284 283 282 280
309 306 296 284 278 278 280 283 284 286 289 293 297 300 302 305 306 305 301 293 285 279 278 279 283 285 287 291 294 293 287 282 283 283 281 279 280 283 285 288 292 294 294 294 294 293 292 288 283 278 273 268 265 265 267 268 268 266 264 263 261 259 263 273 281 281 280 281 282 283 285 286 284 283 282 282 282 284 286 287 286 285 284 283 282
314 312 305 292 283 280 280 280 282 285 289 291 292 293 295 299 303 303 302 298 292 285 279 277 277 280 285 288 288 285 281 280 282 282 282 283 285 287 289 292 296 298 297 296 297 297 296 291 284 279 276 273 270 269 268 268 268 267 264 264 265 265 267 271 275 275 275 277 278 280 281 281 280 279 277 276 277 281 284 285 285 285 284 284 283
312 311 306 298 292 289 286 284 283 285 288 289 288 288 289 293 297 298 298 297 295 291 286 280 277 277 280 282 282 279 278 279 282 284 286 288 289 290 291 293 296 297 298 298 299 299 299 295 288 281 277 275 274 273 272 272 271 271 269 267 267 267 268 269 271 271 272 272 272 273 273 272 274 275 275 274 275 276 277 278 279 280 281 282 282
305 304 301 299 297 297 297 294 288 283 281 281 281 283 287 291 293 295 295 294 294 293 290 286 283 281 279 276 276 277 278 279 281 284 286 287 287 288 290 292 295 296 296 298 299 299 299 297 292 285 280 277 275 275 275 274 273 273 273 271 271 270 270 269 270 270 270 271 271 270 269 268 269 270 271 273 276 277 276 275 276 277 279 281 283
293 294 294 293 293 295 299 299 294 287 282 280 279 279 281 284 286 289 290 289 290 291 291 290 288 286 281 275 272 273 275 277 279 281 282 283 284 287 290 293 296 297 297 298 300 301 300 298 295 289 283 279 275 274 274 274 274 273 273 273 273 272 272 272 272 272 272 273 273 273 272 270 269 269 268 270 272 274 275 275 274 274 276 278 281
287 288 288 287 287 288 290 293 296 296 293 290 287 283 279 278 278 281 283 284 284 286 288 290 290 288 284 277 272 271 274 277 278 279 278 279 282 287 291 294 296 298 299 301 302 302 301 299 296 292 287 282 276 272 271 271 272 273 274 273 273 273 272 272 273 274 275 275 275 276 276 275 274 273 272 271 271 272 272 273 273 272 272 273 274
289 290 290 290 289 288 289 293 298 300 299 298 296 293 288 283 279 278 279 280 282 282 283 285 287 288 287 281 275 272 274 275 274 273 274 278 282 286 289 292 295 298 301 303 303 303 302 300 298 295 292 286 280 274 270 268 269 271 272 273 274 273 273 273 273 274 274 275 276 277 279 279 279 279 279 278 277 275 274 274 274 273 272 271 271
295 297 298 300 300 298 296 297 296 294 293 294 294 294 292 288 284 281 280 280 281 282 283 283 284 285 286 284 279 275 273 272 272 273 276 279 282 284 286 289 293 297 301 304 305 304 303 301 299 297 295 292 286 280 274 269 267 267 269 272 273 273 272 273 273 273 274 274 276 277 278 279 281 281 281 281 280 278 276 274 274 274 274 273 273
310 313 314 317 316 308 300 296 293 291 289 287 287 287 285 284 285 287 287 286 284 281 280 282 284 284 285 284 281 278 275 274 275 277 278 278 280 283 286 289 293 297 300 303 304 304 303 301 299 298 297 295 291 286 280 276 272 269 268 268 269 270 271 272 273 273 274 275 275 275 276 277 279 280 281 281 280 278 276 276 276 276 276 276 276
322 323 314 309 304 298 293 291 290 290 288 287 289 289 286 282 281 284 288 292 292 286 280 280 283 285 285 283 281 277 275 273 274 276 279 281 283 285 288 290 293 297 300 301 302 302 301 301 299 298 296 295 293 289 285 283 281 277 271 267 266 267 269 271 272 273 274 275 274 274 274 276 277 279 280 280 279 279 280 280 281 280 280 279 279
313 309 303 300 299 297 292 287 283 283 284 285 288 291 290 286 283 280 281 285 289 286 280 277 278 281 282 281 280 279 278 279 279 281 281 282 283 285 287 289 292 294 296 298 299 300 300 299 299 296 294 293 292 290 288 286 283 279 274 269 266 266 268 270 271 272 273 273 273 273 273 274 276 277 278 279 280 281 283 284 284 283 282 281 282
310 306 305 307 307 302 293 286 282 282 283 282 281 282 284 285 285 283 281 281 282 283 282 281 282 282 281 280 279 279 280 281 281 280 280 280 282 284 286 287 288 289 292 295 297 298 298 298 298 296 293 291 290 289 287 286 283 279 274 269 266 266 267 269 270 271 271 271 272 272 273 274 275 277 278 280 281 282 284 284 284 284 283 283 283
328 326 326 323 314 301 294 291 288 285 286 287 284 280 278 280 282 282 281 280 281 282 282 281 280 280 279 277 277 278 279 280 281 282 283 284 285 285 285 285 286 288 290 292 295 297 298 298 296 294 292 290 288 286 285 284 282 279 274 269 266 266 267 267 268 268 269 269 270 271 272 273 275 276 278 280 281 282 284 284 284 284 283 282 281
Height
1566 1569 1571 1573 1575 1576 1578 1580 1582 1583 1585 1586 1586 1587 1589 1590 1591 1592 1593 1594 1595 1595 1596 1597 1598 1599 1600 1601 1602 1603 1604 1604 1605 1605 1606 1607 1607 1608 1609 1609 1610 1610 1611 1611 1611 1611 1612 1612 1613 1613 1614 1614 1614 1615 1615 1615 1616 1616 1616 1616 1615 1615 1615 1614 1613 1613 1613 1613 1613 1612 1612 1611 1611 1610 1609 1608 1607 1606 1605 1605 1604 1603 1602 1600 1600
1565 1567 1569 1571 1572 1574 1576 1578 1580 1582 1583 1584 1585 1586 1587 1588 1590 1591 1592 1593 1594 1595 1596 1596 1597 1598 1598 1600 1601 1602 1603 1603 1604 1605 1605 1606 1607 1607 1608 1608 1609 1609 1610 1610 1610 1611 1611 1611 1612 1613 1613 1613 1613 1614 1614 1614 1615 1615 1615 1615 1615 1615 1614 1614 1613 1612 1612 1612 1612 1611 1611 1610 1609 1609 1608 1607 1606 1605 1604 1604 1603 1602 1601 1599 1598
1563 1565 1566 1568 1570 1572 1574 1576 1578 1580 1581 1583 1584 1585 1586 1587 1588 1589 1590 1592 1593 1594 1595 1596 1596 1597 1597 1598 1599 1600 1601 1602 1603 1604 1604 1605 1606 1606 1607 1607 1608 1608 1609 1609 1610 1610 1610 1611 1611 1612 1612 1612 1613 1613 1613 1614 1614 1614 1614 1614 1614 1614 1614 1613 1613 1612 1611 1610 1610 1610 1610 1609 1608 1608 1607 1606 1605 1604 1603 1602 1602 1601 1599 1598 1597
1562 1563 1564 1566 1568 1571 1573 1575 1576 1578 1579 1581 1582 1583 1585 1586 1587 1588 1589 1591 1592 1593 1594 1594 1595 1596 1596 1597 1598 1598 1600 1601 1602 1602 1603 1604 1605 1606 1606 1607 1607 1607 1608 1608 1609 1609 1610 1610 1610 1611 1611 1611 1612 1612 1613 1613 1613 1613 1613 1613 1613 1613 1613 1613 1612 1611 1610 1609 1609 1609 1608 1608 1607 1606 1606 1604 1604 1603 1602 1601 1600 1599 1598 1597 1596
1561 1562 1563 1564 1566 1570 1572 1573 1574 1575 1576 1578 1579 1581 1583 1584 1585 1586 1588 1589 1590 1591 1592 1593 1593 1594 1594 1595 1596 1597 1598 1599 1600 1601 1602 1603 1604 1604 1605 1605 1606 1606 1607 1607 1607 1608 1608 1609 1609 1610 1610 1610 1610 1611 1612 1612 1612 1612 1612 1613 1612 1612 1612 1612 1612 1611 1610 1609 1608 1607 1607 1606 1606 1605 1604 1603 1602 1601 1600 1599 1599 1598 1597 1596 1595
1560 1561 1561 1562 1564 1567 1569 1570 1572 1573 1574 1575 1576 1578 1580 1582 1583 1584 1586 1587 1588 1590 1591 1591 1591 1592 1592 1593 1594 1595 1596 1597 1598 1599 1600 1601 1602 1603 1603 1604 1604 1604 1605 1606 1606 1606 1607 1607 1607 1608 1608 1608 1609 1609 1610 1610 1611 1611 1611 1611 1611 1611 1611 1611 1611 1610 1609 1608 1607 1606 1606 1605 1605 1604 1603 1602 1601 1600 1599 1598 1597 1596 1595 1594 1594
1558 1558 1559 1560 1562 1563 1565 1567 1569 1571 1572 1574 1574 1576 1577 1579 1581 1582 1584 1585 1586 1588 1588 1589 1590 1590 1590 1591 1591 1593 1594 1595 1596 1596 1597 1598 1599 1600 1601 1602 1602 1602 1603 1603 1604 1604 1605 1605 1606 1606 1606 1607 1607 1607 1608 1608 1608 1609 1609 1609 1610 1610 1610 1609 1609 1609 1608 1607 1607 1606 1605 1604 1604 1603 1602 1601 1600 1599 1598 1597 1595 1595 1594 1593 1592
1554 1555 1556 1558 1560 1561 1563 1565 1567 1569 1570 1572 1573 1574 1575 1577 1578 1580 1581 1582 1584 1585 1586 1587 1588 1589 1589 1590 1590 1591 1592 1593 1593 1594 1595 1596 1597 1597 1598 1599 1600 1600 1601 1601 1601 1602 1602 1603 1603 1604 1604 1604 1605 1605 1605 1606 1606 1606 1607 1607 1608 1608 1608 1608 1608 1608 1607 1606 1605 1605 1604 1603 1603 1602 1601 1600 1599 1598 1597 1596 1594 1594 1593 1592 1591
1551 1552 1553 1555 1557 1559 1561 1563 1564 1566 1568 1569 1571 1572 1573 1574 1576 1577 1579 1580 1581 1583 1584 1585 1586 1587 1588 1588 1589 1590 1590 1591 1592 1592 1593 1594 1594 1595 1595 1596 1597 1597 1598 1598 1599 1599 1600 1600 1601 1601 1602 1602 1602 1603 1603 1604 1604 1604 1604 1605 1605 1606 1606 1606 1606 1606 1605 1605 1604 1603 1602 1602 1601 1600 1600 1599 1598 1597 1596 1595 1593 1592 1591 1590 1589
1548 1550 1551 1552 1555 1557 1559 1560 1562 1564 1565 1567 1569 1570 1571 1572 1573 1574 1576 1578 1579 1581 1582 1583 1584 1585 1586 1587 1587 1588 1589 1589 1590 1591 1591 1592 1592 1592 1593 1593 1594 1594 1595 1595 1596 1596 1597 1597 1598 1599 1599 1600 1600 1600 1601 1601 1601 1602 1602 1603 1603 1603 1603 1603 1603 1603 1603 1602 1602 1601 1600 1599 1599 1599 1598 1597 1596 1595 1594 1593 1592 1591 1590 1588 1587
1546 1548 1550 1551 1552 1554 1556 1558 1559 1561 1563 1565 1566 1568 1569 1570 1571 1571 1573 1575 1577 1578 1580 1581 1582 1583 1583 1584 1585 1585 1585 1586 1587 1588 1589 1590 1590 1590 1590 1591 1591 1591 1592 1592 1592 1593 1594 1594 1595 1596 1597 1597 1597 1598 1598 1599 1599 1599 1600 1600 1601 1601 1601 1601 1601 1601 1601 1600 1599 1599 1598 1597 1597 1596 1596 1595 1594 1594 1593 1592 1590 1589 1588 1586 1584
1546 1548 1549 1551 1552 1552 1554 1555 1557 1559 1560 1562 1564 1565 1567 1568 1568 1569 1570 1572 1574 1576 1577 1578 1579 1580 1580 1581 1581 1582 1582 1583 1584 1585 1586 1587 1588 1588 1588 1588 1588 1589 1589 1589 1590 1590 1591 1591 1592 1593 1594 1594 1595 1595 1596 1596 1597 1597 1597 1598 1598 1599 1599 1599 1598 1598 1598 1597 1597 1596 1596 1595 1594 1594 1594 1593 1592 1591 1590 1589 1588 1587 1586 1585 1583
1545 1546 1547 1550 1552 1552 1553 1553 1555 1556 1557 1559 1560 1562 1563 1564 1565 1567 1568 1570 1572 1573 1574 1575 1576 1577 1578 1578 1578 1579 1579 1580 1581 1582 1583 1584 1585 1585 1585 1586 1586 1586 1587 1587 1587 1588 1588 1589 1589 1590 1590 1591 1592 1592 1593 1593 1594 1594 1595 1595 1595 1596 1596 1596 1596 1596 1596 1595 1594 1594 1593 1593 1592 1591 1591 1591 1589 1589 1587 1586 1586 1584 1583 1582 1581
1544 1545 1546 1549 1551 1552 1552 1553 1553 1554 1555 1556 1557 1558 1559 1560 1562 1564 1565 1567 1569 1570 1571 1572 1573 1574 1575 1575 1575 1576 1576 1577 1578 1579 1580 1581 1582 1582 1583 1583 1583 1584 1584 1585 1585 1586 1586 1587 1587 1587 1587 1588 1588 1589 1589 1590 1590 1591 1591 1592 1592 1592 1593 1593 1593 1593 1592 1592 1591 1590 1591 1590 1589 1589 1589 1589 1587 1586 1584 1583 1582 1582 1580 1579 1578
1545 1547 1548 1549 1550 1550 1551 1552 1552 1552 1553 1554 1555 1555 1556 1557 1559 1560 1561 1563 1565 1566 1567 1568 1569 1570 1571 1572 1572 1573 1573 1574 1575 1575 1577 1578 1579 1579 1580 1580 1580 1581 1582 1582 1583 1584 1584 1584 1584 1584 1585 1585 1586 1586 1586 1587 1587 1587 1588 1588 1588 1588 1589 1589 1589 1589 1589 1589 1588 1587 1587 1587 1586 1586 1586 1586 1585 1583 1582 1581 1580 1579 1578 1576 1575
1548 1549 1550 1549 1549 1549 1550 1551 1550 1551 1552 1553 1554 1554 1555 1556 1556 1557 1558 1560 1561 1562 1563 1564 1565 1567 1568 1569 1569 1570 1570 1570 1570 1571 1572 1573 1574 1575 1576 1577 1577 1577 1578 1579 1579 1580 1581 1581 1581 1582 1582 1582 1582 1583 1583 1584 1584 1583 1583 1583 1584 1584 1583 1584 1585 1585 1585 1585 1584 1583 1583 1583 1583 1582 1582 1582 1581 1580 1579 1578 1577 1577 1575 1573 1571
1548 1549 1548 1547 1546 1547 1549 1549 1549 1550 1552 1553 1553 1553 1554 1555 1556 1556 1557 1558 1559 1559 1561 1561 1562 1564 1565 1565 1566 1567 1567 1567 1567 1567 1568 1569 1570 1571 1572 1573 1573 1574 1574 1574 1575 1575 1576 1577 1577 1578 1578 1578 1579 1580 1580 1580 1580 1579 1579 1579 1579 1578 1578 1579 1581 1581 1580 1580 1580 1579 1579 1579 1579 1579 1578 1578 1577 1577 1576 1573 1573 1574 1572 1569 1568
1549 1548 1547 1547 1546 1547 1549 1550 1550 1551 1553 1553 1552 1552 1553 1554 1554 1555 1555 1556 1557 1557 1558 1559 1560 1561 1562 1563 1563 1564 1564 1564 1564 1564 1565 1565 1566 1567 1569 1570 1570 1570 1571 1571 1571 1572 1572 1573 1573 1573 1573 1574 1575 1576 1576 1577 1576 1575 1575 1575 1574 1573 1573 1575 1576 1575 1575 1575 1575 1574 1574 1574 1574 1574 1574 1573 1573 1573 1571 1569 1569 1570 1568 1566 1565
1550 1550 1550 1550 1551 1552 1553 1554 1554 1554 1554 1552 1551 1551 1551 1552 1553 1553 1554 1554 1554 1555 1556 1556 1557 1558 1559 1559 1560 1560 1561 1561 1561 1562 1562 1563 1564 1565 1566 1566 1567 1567 1567 1568 1568 1568 1569 1569 1569 1569 1569 1569 1570 1571 1572 1573 1572 1571 1572 1572 1570 1569 1569 1571 1571 1571 1571 1570 1570 1569 1569 1569 1569 1569 1568 1568 1568 1568 1567 1565 1565 1565 1564 1562 1562
1550 1551 1552 1552 1553 1554 1554 1555 1555 1554 1552 1550 1549 1549 1550 1550 1551 1552 1552 1552 1552 1552 1553 1553 1554 1555 1555 1556 1556 1557 1557 1557 1558 1559 1559 1561 1562 1562 1563 1563 1563 1563 1563 1564 1564 1564 1564 1564 1564 1564 1565 1565 1566 1567 1568 1569 1569 1568 1568 1568 1567 1566 1566 1567 1567 1566 1566 1565 1565 1564 1564 1564 1564 1564 1563 1563 1563 1563 1563 1562 1562 1561 1560 1559 1559
1550 1551 1551 1552 1552 1553 1553 1553 1552 1551 1550 1549 1548 1548 1548 1548 1549 1549 1549 1548 1549 1549 1550 1550 1551 1551 1552 1552 1553 1553 1554 1554 1555 1555 1556 1558 1559 1559 1559 1559 1559 1559 1559 1559 1559 1559 1559 1559 1559 1560 1561 1561 1561 1562 1563 1564 1565 1564 1564 1564 1563 1564 1564 1563 1563 1562 1561 1560 1560 1559 1559 1559 1559 1559 1558 1558 1558 1558 1558 1558 1557 1557 1556 1555 1555
1550 1550 1550 1550 1551 1551 1551 1551 1550 1549 1548 1547 1546 1546 1546 1546 1546 1546 1546 1546 1546 1547 1547 1547 1548 1548 1548 1549 1550 1551 1551 1552 1552 1552 1553 1554 1555 1555 1555 1555 1555 1555 1554 1554 1553 1553 1554 1554 1554 1556 1557 1557 1557 1557 1557 1558 1559 1559 1559 1560 1560 1561 1560 1559 1558 1557 1557 1556 1555 1554 1554 1554 1554 1553 1554 1554 1554 1554 1553 1553 1553 1552 1552 1551 1551
1549 1549 1549 1549 1549 1549 1549 1549 1549 1548 1547 1546 1546 1545 1545 1544 1544 1544 1544 1544 1544 1544 1545 1545 1545 1545 1545 1546 1547 1547 1548 1548 1548 1548 1549 1550 1550 1551 1551 1551 1551 1550 1550 1549 1549 1550 1550 1550 1551 1552 1552 1552 1552 1552 1552 1553 1553 1553 1554 1555 1556 1556 1556 1554 1553 1553 1552 1552 1551 1550 1549 1549 1549 1549 1549 1549 1550 1550 1550 1549 1548 1548 1547 1546 1546
1549 1549 1548 1548 1547 1547 1547 1547 1547 1547 1546 1545 1545 1544 1544 1544 1544 1544 1544 1543 1543 1542 1543 1543 1543 1543 1543 1543 1544 1545 1545 1545 1545 1544 1545 1545 1546 1546 1546 1547 1547 1547 1546 1546 1546 1546 1546 1546 1546 1547 1547 1546 1546 1546 1546 1547 1548 1549 1549 1550 1551 1551 1550 1549 1549 1549 1548 1547 1547 1546 1545 1545 1545 1544 1545 1545 1545 1545 1545 1544 1544 1543 1542 1541 1541
1548 1548 1548 1547 1547 1546 1546 1546 1546 1545 1545 1544 1544 1544 1544 1543 1543 1543 1543 1542 1542 1541 1541 1542 1542 1542 1542 1542 1542 1543 1543 1542 1542 1542 1542 1542 1542 1543 1543 1543 1543 1543 1542 1542 1542 1542 1541 1541 1541 1541 1541 1541 1541 1541 1541 1542 1543 1544 1545 1545 1545 1545 1545 1545 1545 1545 1544 1543 1543 1542 1541 1541 1541 1540 1540 1541 1541 1540 1540 1539 1539 1539 1538 1537 1536
1546 1546 1546 1546 1546 1545 1544 1544 1544 1543 1543 1543 1543 1543 1543 1542 1542 1542 1541 1541 1541 1540 1540 1541 1541 1541 1540 1540 1540 1540 1540 1540 1539 1539 1539 1539 1539 1540 1540 1540 1540 1539 1538 1537 1538 1538 1537 1537 1537 1536 1536 1536 1536 1536 1536 1537 1539 1540 1540 1540 1540 1540 1540 1540 1541 1541 1540 1539 1538 1538 1537 1536 1536 1535 1535 1535 1534 1534 1534 1534 1534 1533 1533 1532 1531
1544 1544 1544 1544 1544 1543 1543 1542 1542 1542 1541 1541 1541 1541 1541 1541 1541 1540 1540 1540 1540 1539 1539 1539 1539 1539 1539 1539 1538 1538 1538 1537 1537 1536 1536 1536 1536 1537 1537 1538 1537 1536 1535 1534 1534 1534 1534 1533 1533 1532 1532 1532 1532 1532 1533 1533 1534 1535 1536 1536 1536 1536 1536 1536 1537 1537 1536 1535 1534 1533 1532 1532 1531 1530 1529 1528 1528 1528 1529 1529 1528 1527 1527 1527 1526
1542 1542 1542 1541 1542 1541 1541 1541 1540 1540 1540 1539 1539 1539 1539 1539 1539 1539 1539 1539 1539 1538 1538 1538 1538 1538 1537 1537 1537 1537 1536 1536 1535 1535 1534 1534 1534 1535 1535 1535 1535 1533 1532 1532 1531 1531 1531 1530 1529 1529 1529 1528 1529 1529 1529 1530 1530 1531 1531 1532 1532 1531 1531 1532 1532 1532 1531 1531 1530 1528 1527 1527 1525 1524 1523 1522 1522 1522 1523 1524 1523 1521 1521 1522 1521
1541 1541 1540 1539 1539 1539 1539 1539 1538 1538 1538 1537 1537 1538 1538 1537 1537 1537 1538 1538 1538 1537 1537 1536 1537 1537 1536 1536 1536 1535 1535 1535 1535 1534 1533 1533 1533 1534 1534 1533 1532 1531 1530 1529 1528 1528 1528 1527 1527 1527 1526 1526 1526 1526 1526 1526 1526 1526 1527 1527 1527 1527 1527 1527 1526 1526 1526 1526 1525 1524 1523 1522 1521 1519 1518 1517 1517 1517 1518 1518 1517 1516 1516 1516 1514
1540 1540 1539 1538 1537 1537 1536 1536 1536 1536 1535 1535 1535 1535 1535 1535 1535 1535 1535 1536 1536 1536 1535 1535 1535 1535 1534 1535 1535 1534 1534 1534 1534 1533 1532 1532 1531 1531 1530 1530 1529 1528 1527 1527 1526 1525 1525 1524 1524 1524 1524 1523 1523 1522 1522 1522 1522 1522 1522 1523 1523 1522 1521 1521 1521 1521 1521 1521 1520 1519 1519 1518 1516 1515 1514 1513 1513 1514 1514 1514 1513 1512 1512 1511 1509
1540 1539 1537 1537 1536 1535 1534 1534 1533 1533 1533 1533 1532 1532 1531 1532 1532 1532 1532 1532 1533 1533 1533 1533 1533 1533 1532 1532 1532 1533 1533 1533 1532 1532 1531 1530 1529 1528 1527 1527 1526 1525 1524 1524 1523 1522 1522 1521 1521 1520 1520 1520 1519 1519 1519 1519 1518 1518 1518 1518 1518 1517 1517 1516 1516 1517 1517 1516 1516 1515 1515 1514 1512 1511 1510 1509 1509 1510 1510 1510 1509 1509 1508 1507 1506
1539 1538 1537 1536 1535 1534 1533 1532 1531 1531 1530 1530 1530 1529 1528 1528 1528 1529 1529 1530 1529 1530 1530 1530 1530 1530 1530 1530 1529 1530 1530 1530 1530 1530 1529 1527 1526 1525 1525 1524 1523 1522 1521 1520 1519 1519 1518 1517 1517 1516 1516 1516 1516 1516 1516 1515 1515 1514 1514 1513 1513 1512 1512 1512 1512 1512 1511 1511 1510 1510 1509 1509 1508 1507 1506 1505 1505 1505 1505 1505 1505 1505 1504 1504 1503
1538 1537 1536 1535 1534 1533 1532 1531 1530 1529 1528 1528 1527 1527 1526 1525 1524 1524 1525 1526 1526 1527 1527 1527 1527 1527 1528 1528 1527 1527 1527 1527 1527 1527 1526 1525 1524 1523 1522 1522 1520 1519 1518 1517 1516 1516 1515 1514 1514 1513 1513 1512 1512 1512 1511 1511 1511 1510 1510 1509 1508 1508 1508 1508 1508 1507 1506 1506 1506 1505 1504 1504 1504 1502 1501 1500 1500 1500 1501 1500 1500 1500 1500 1500 1499
1536 1535 1535 1534 1533 1532 1531 1530 1529 1528 1527 1526 1526 1525 1524 1524 1523 1522 1522 1522 1523 1523 1523 1524 1524 1524 1524 1524 1524 1524 1523 1523 1523 1523 1522 1521 1521 1520 1520 1519 1518 1517 1516 1515 1514 1513 1513 1512 1511 1511 1510 1509 1509 1508 1507 1507 1507 1506 1506 1505 1504 1504 1504 1504 1503 1502 1502 1502 1501 1500 1500 1500 1500 1498 1497 1496 1496 1496 1495 1495 1496 1496 1495 1495 1494
1535 1534 1533 1532 1531 1530 1529 1528 1527 1526 1525 1524 1524 1523 1523 1522 1522 1521 1521 1520 1520 1520 1520 1521 1521 1521 1521 1521 1521 1520 1520 1519 1518 1519 1518 1518 1517 1517 1517 1516 1516 1515 1514 1513 1511 1511 1510 1509 1509 1508 1507 1506 1506 1505 1504 1504 1503 1503 1502 1502 1501 1501 1500 1500 1499 1498 1498 1498 1497 1497 1496 1496 1496 1495 1493 1492 1491 1491 1491 1491 1491 1491 1490 1490 1490
1533 1533 1532 1530 1529 1528 1527 1526 1525 1524 1523 1523 1522 1522 1521 1520 1520 1520 1519 1519 1518 1518 1517 1518 1518 1518 1519 1519 1519 1518 1517 1516 1516 1516 1515 1515 1515 1514 1514 1513 1513 1512 1511 1510 1509 1508 1507 1507 1506 1505 1504 1503 1503 1502 1501 1501 1501 1500 1500 1499 1498 1498 1497 1496 1496 1495 1495 1494 1493 1493 1493 1492 1492 1491 1490 1488 1487 1487 1487 1487 1487 1487 1486 1486 1486
1531 1530 1529 1528 1527 1526 1525 1524 1523 1522 1522 1521 1521 1520 1519 1518 1518 1517 1517 1517 1517 1516 1515 1515 1515 1516 1516 1516 1516 1516 1515 1514 1514 1513 1513 1513 1512 1512 1511 1511 1510 1510 1509 1507 1506 1505 1505 1504 1504 1503 1502 1501 1500 1499 1498 1498 1497 1497 1497 1497 1496 1495 1495 1494 1493 1492 1492 1491 1490 1489 1489 1488 1488 1487 1486 1485 1484 1484 1484 1483 1483 1483 1483 1483 1483
1528 1527 1526 1526 1524 1523 1523 1522 1521 1520 1520 1519 1519 1518 1517 1516 1516 1515 1515 1515 1514 1514 1514 1513 1513 1513 1513 1513 1513 1513 1513 1512 1512 1511 1511 1510 1510 1509 1509 1508 1508 1507 1507 1505 1504 1502 1502 1501 1501 1500 1499 1499 1498 1496 1495 1495 1494 1494 1494 1493 1493 1492 1492 1491 1490 1490 1489 1488 1487 1486 1485 1485 1484 1484 1483 1481 1480 1480 1480 1480 1479 1479 1478 1478 1478
1525 1524 1523 1523 1522 1521 1520 1519 1519 1518 1518 1517 1516 1515 1514 1514 1513 1513 1512 1512 1512 1511 1511 1511 1510 1510 1510 1510 1510 1510 1509 1509 1509 1508 1508 1508 1507 1507 1507 1506 1506 1505 1504 1503 1502 1500 1499 1497 1497 1497 1496 1495 1494 1494 1492 1492 1491 1491 1490 1489 1489 1489 1488 1487 1486 1486 1486 1485 1484 1483 1482 1481 1481 1480 1479 1478 1477 1476 1476 1475 1475 1475 1474 1473 1473
1522 1521 1520 1519 1519 1518 1517 1517 1517 1516 1515 1515 1514 1513 1512 1511 1511 1510 1509 1509 1508 1508 1508 1508 1507 1507 1508 1508 1508 1507 1507 1506 1506 1505 1505 1505 1504 1504 1504 1504 1503 1502 1501 1500 1499 1498 1496 1494 1493 1492 1492 1491 1491 1490 1489 1488 1487 1487 1486 1486 1485 1484 1483 1483 1482 1482 1481 1481 1480 1480 1479 1478 1477 1476 1476 1474 1473 1473 1472 1471 1471 1470 1470 1469 1468
1519 1518 1517 1516 1516 1515 1514 1514 1514 1513 1513 1512 1511 1510 1509 1509 1508 1507 1507 1506 1505 1505 1505 1504 1504 1504 1505 1505 1505 1504 1504 1503 1502 1502 1502 1501 1501 1501 1501 1501 1501 1499 1498 1496 1495 1494 1493 1491 1489 1488 1488 1487 1487 1486 1485 1484 1484 1483 1482 1482 1481 1480 1479 1479 1478 1477 1477 1476 1476 1475 1475 1474 1473 1472 1471 1471 1470 1469 1468 1467 1466 1466 1465 1464 1464
1517 1516 1515 1514 1513 1513 1512 1511 1511 1510 1510 1509 1508 1508 1507 1506 1506 1505 1504 1503 1502 1502 1501 1500 1501 1501 1501 1501 1501 1500 1500 1500 1499 1499 1499 1498 1498 1498 1498 1497 1497 1496 1494 1493 1491 1490 1489 1488 1487 1485 1484 1483 1483 1482 1481 1480 1479 1478 1478 1477 1476 1475 1475 1474 1474 1473 1472 1471 1470 1470 1469 1469 1468 1468 1467 1466 1465 1465 1464 1463 1462 1461 1460 1459 1459
1515 1514 1513 1513 1512 1511 1510 1509 1508 1507 1507 1506 1505 1505 1504 1503 1503 1502 1501 1500 1500 1499 1498 1497 1497 1497 1497 1498 1497 1496 1496 1496 1496 1496 1496 1495 1495 1495 1494 1494 1493 1492 1491 1489 1487 1486 1485 1484 1483 1482 1481 1480 1479 1478 1477 1476 1475 1474 1473 1472 1471 1470 1470 1469 1468 1467 1466 1465 1464 1463 1463 1463 1462 1462 1461 1461 1460 1459 1459 1458 1457 1456 1456 1455 1454
1512 1511 1511 1510 1509 1509 1508 1507 1506 1505 1504 1503 1503 1502 1501 1501 1500 1499 1498 1497 1497 1496 1495 1494 1494 1493 1493 1494 1493 1492 1492 1492 1492 1492 1492 1492 1492 1491 1491 1490 1489 1488 1487 1486 1484 1483 1481 1479 1479 1478 1477 1476 1475 1474 1473 1472 1471 1470 1469 1468 1466 1465 1465 1464 1463 1462 1461 1459 1458 1457 1457 1456 1456 1455 1455 1455 1454 1454 1453 1452 1451 1451 1450 1449 1448
1508 1508 1507 1506 1506 1505 1505 1504 1504 1503 1502 1502 1501 1500 1499 1498 1497 1496 1496 1495 1494 1493 1493 1492 1491 1490 1490 1490 1490 1489 1488 1488 1489 1489 1489 1489 1488 1488 1487 1486 1485 1484 1483 1482 1481 1479 1477 1475 1474 1473 1472 1472 1471 1470 1469 1468 1467 1465 1464 1463 1462 1461 1460 1459 1458 1457 1455 1454 1453 1452 1451 1450 1450 1449 1449 1448 1448 1448 1447 1446 1445 1444 1443 1443 1442
1505 1504 1503 1503 1503 1502 1502 1502 1502 1501 1500 1500 1498 1497 1496 1496 1495 1494 1493 1492 1491 1491 1490 1489 1488 1488 1487 1487 1486 1486 1485 1485 1486 1485 1485 1485 1484 1484 1483 1482 1481 1480 1479 1478 1476 1475 1473 1471 1469 1468 1467 1466 1466 1465 1464 1463 1462 1461 1460 1458 1457 1456 1455 1454 1453 1451 1450 1450 1448 1447 1446 1445 1444 1444 1444 1443 1443 1442 1441 1440 1439 1438 1437 1437 1436
1503 1502 1502 1501 1501 1501 1501 1500 1500 1499 1498 1497 1496 1495 1494 1493 1492 1491 1490 1489 1489 1488 1487 1486 1486 1485 1485 1484 1484 1483 1483 1483 1482 1482 1482 1481 1480 1480 1479 1478 1477 1476 1475 1474 1472 1471 1469 1468 1466 1463 1462 1461 1460 1459 1459 1458 1457 1456 1454 1453 1452 1451 1450 1449 1448 1446 1446 1445 1444 1443 1441 1440 1439 1439 1439 1438 1437 1436 1435 1434 1434 1433 1432 1431 1430
1501 1501 1500 1500 1500 1499 1499 1498 1497 1496 1495 1493 1493 1492 1491 1490 1490 1489 1488 1487 1486 1485 1484 1484 1483 1483 1482 1482 1481 1481 1480 1480 1479 1479 1479 1478 1477 1476 1475 1474 1473 1472 1471 1470 1468 1467 1465 1464 1462 1460 1458 1456 1455 1454 1453 1452 1451 1450 1449 1449 1448 1447 1446 1445 1443 1442 1442 1441 1439 1438 1437 1436 1435 1434 1434 1433 1432 1431 1430 1429 1428 1428 1427 1426 1425
1499 1499 1498 1498 1497 1497 1496 1494 1493 1493 1491 1491 1490 1489 1488 1487 1487 1486 1485 1484 1483 1482 1481 1481 1480 1480 1480 1479 1479 1478 1477 1477 1476 1476 1475 1474 1473 1472 1471 1470 1469 1468 1467 1466 1464 1463 1461 1459 1458 1456 1454 1453 1451 1450 1449 1448 1447 1446 1444 1444 1443 1442 1441 1441 1439 1439 1438 1436 1435 1434 1433 1432 1431 1430 1429 1428 1428 1427 1426 1425 1424 1423 1422 1421 1420
1497 1496 1496 1495 1495 1494 1493 1491 1490 1490 1489 1488 1487 1486 1485 1484 1483 1482 1482 1481 1480 1479 1478 1477 1477 1477 1476 1476 1475 1475 1474 1473 1473 1472 1471 1471 1470 1469 1467 1466 1465 1463 1462 1461 1460 1458 1457 1455 1454 1452 1451 1449 1448 1447 1445 1443 1442 1441 1440 1439 1438 1437 1437 1436 1435 1435 1434 1432 1431 1430 1429 1428 1427 1426 1425 1424 1424 1423 1422 1422 1421 1420 1419 1418 1417
1495 1494 1493 1493 1492 1491 1490 1488 1488 1487 1486 1485 1484 1483 1482 1481 1480 1479 1478 1477 1476 1475 1475 1474 1474 1473 1473 1473 1472 1472 1471 1470 1469 1468 1467 1467 1466 1464 1463 1462 1460 1459 1458 1457 1455 1454 1453 1451 1450 1448 1447 1445 1444 1443 1441 1439 1438 1437 1435 1434 1433 1433 1432 1431 1431 1431 1430 1428 1427 1426 1425 1424 1423 1423 1422 1421 1421 1420 1419 1419 1418 1417 1416 1415 1415